Theta_e
343 344 346 347 347 348 349 348 346 341 340 338 335 334 333 333 330 328 323 321 318 315 312 310 313 316 303
340 336 339 342 343 344 344 341 337 336 336 333 331 333 333 331 328 326 322 321 318 313 308 307 311 310 300
336 336 333 336 337 338 337 332 329 329 328 327 326 330 332 329 327 324 322 319 316 310 305 306 307 296 298
339 336 334 335 336 336 334 332 330 326 324 324 321 326 328 327 327 323 321 318 309 298 296 303 296 295 295
334 331 334 336 332 332 334 330 329 327 324 320 317 318 317 319 316 317 313 306 303 299 295 295 295 294 294
329 328 332 333 331 327 332 331 328 326 322 314 313 312 312 310 308 306 304 301 298 296 295 294 294 293 293
325 325 324 329 329 329 325 328 330 327 322 312 311 311 310 308 306 304 302 297 296 295 295 294 294 293 293
325 323 323 323 324 324 325 325 323 324 321 314 310 310 310 308 305 303 299 296 295 294 294 294 294 293 294
320 322 321 322 322 322 323 324 324 321 317 312 309 309 310 307 304 299 296 295 293 294 292 293 293 293 293
317 318 321 320 320 320 321 321 323 320 316 310 307 307 307 305 302 297 295 293 292 291 290 291 291 293 293
315 315 316 319 318 318 319 318 321 318 314 312 307 306 305 301 298 296 292 292 290 290 290 289 290 291 292
308 310 311 313 314 315 316 317 319 318 313 310 305 305 303 299 295 293 292 291 290 290 292 290 289 290 290
302 305 306 307 309 311 315 317 317 316 314 308 304 303 300 299 296 293 291 291 289 288 288 287 287 288 289
299 301 303 302 301 304 309 312 314 313 313 309 304 301 298 295 293 292 292 289 290 289 287 285 283 285 287
295 297 299 299 298 299 300 304 307 310 310 308 305 301 299 298 294 293 291 291 289 288 289 288 283 283 283
293 292 292 292 292 294 295 296 297 300 304 306 305 302 299 297 295 292 293 291 289 287 287 290 288 287 283
Wind_Speed
13 15 14 14 13 12 12 13 14 13 13 12 9 8 9 9 9 8 8 7 6 5 5 6 8 8 7
10 11 14 14 14 13 11 10 11 11 11 11 8 7 10 9 9 9 8 8 7 6 4 5 7 8 7
6 7 10 11 12 12 10 13 10 5 7 9 9 8 9 9 10 9 9 8 7 5 2 4 5 3 5
8 7 6 6 5 6 6 8 6 6 6 7 9 11 9 9 10 11 9 9 6 2 0 2 2 4 3
9 6 5 5 4 4 9 8 6 6 5 4 4 4 4 7 4 6 5 3 5 3 1 2 2 3 3
6 5 6 6 5 4 6 9 7 5 5 4 3 4 4 4 5 5 3 3 2 3 4 4 3 3 3
8 5 5 7 6 7 5 7 8 7 6 5 5 5 5 5 5 5 5 4 4 4 3 4 3 3 4
8 7 5 4 5 5 5 6 6 5 5 7 6 6 5 5 4 5 5 5 4 4 4 4 3 2 3
8 7 5 5 5 4 5 7 7 7 7 7 6 6 7 6 7 5 4 4 4 3 4 3 4 4 3
7 5 5 5 5 5 5 5 8 9 10 7 5 5 5 4 5 6 5 4 4 5 4 4 3 3 4
2 2 2 5 4 4 4 4 6 8 8 8 6 5 5 4 4 5 2 4 3 3 4 3 3 3 4
5 4 4 4 2 1 3 3 6 6 7 7 5 6 5 5 4 3 4 1 3 4 3 3 3 3 3
5 4 4 3 3 3 2 3 3 4 6 6 4 6 6 8 8 6 4 5 2 3 4 2 2 2 4
7 4 4 3 2 3 4 5 5 2 4 5 5 5 6 5 6 7 6 3 3 6 5 3 2 4 3
12 8 6 4 4 5 5 4 5 5 1 3 5 4 4 6 7 8 6 8 6 6 6 6 3 6 2
14 10 10 5 6 4 4 4 5 8 5 3 2 3 5 4 5 6 6 6 5 6 2 7 1 4 4
Wind_Direction
187 185 186 190 195 202 207 195 185 167 167 162 171 201 188 179 180 158 152 141 132 108 76 65 45 76 68
206 188 189 188 189 192 208 182 162 168 160 150 161 207 192 186 182 166 160 156 136 121 106 66 31 58 77
197 198 196 195 191 195 191 174 164 159 160 154 152 186 190 193 183 176 169 152 129 117 106 64 55 70 86
197 194 197 198 207 189 171 175 170 161 160 156 160 178 186 186 177 178 169 142 124 137 102 59 81 88 97
193 179 188 195 188 189 176 173 165 165 167 161 160 169 173 165 164 167 153 143 169 185 199 152 137 116 120
187 181 183 189 191 190 181 174 173 173 160 165 165 167 163 159 155 145 144 165 232 187 165 150 127 132 132
183 174 173 189 187 196 184 187 181 192 175 159 170 166 163 160 160 162 166 177 187 162 153 149 135 119 110
184 177 177 171 176 175 181 196 199 192 173 175 170 172 168 174 167 165 171 175 183 169 161 145 139 114 107
181 174 163 173 170 175 181 187 186 171 170 173 173 180 179 174 162 156 167 158 158 164 164 158 151 151 147
180 176 169 169 172 179 180 180 178 174 169 159 161 176 174 165 162 164 162 165 175 171 167 187 173 158 164
9 79 165 183 170 183 171 170 165 155 156 163 165 175 163 160 163 169 166 147 165 175 177 175 177 176 182
35 43 37 40 23 138 160 171 168 163 156 162 164 170 162 154 159 163 152 148 155 169 151 152 191 197 188
11 11 21 20 4 9 12 133 148 157 160 160 174 168 163 174 178 172 142 170 171 157 99 3 325 246 212
22 3 37 42 33 29 356 27 40 143 180 164 171 183 170 148 167 170 161 147 181 185 148 123 227 309 272
21 26 15 18 21 16 3 3 2 23 151 191 184 170 180 183 189 193 181 168 192 215 232 148 129 224 144
22 37 50 45 26 348 358 3 355 352 349 19 281 223 183 190 197 197 194 191 143 190 270 245 245 145 179